[[{"header":{"parameterUnit":"m.s-1","parameterCategory":1,"la1":30.2991,"la2":30.254,"lo1":-89.0895,"lo2":-89.0444,"dy":0.0017,"dx":0.0017,"nx":28,"ny":28,"refTime":"2025-05-17T21:00:00:Z","depth":0,"parameterNumber":2,"parameterNumberName":"U-component_of_WINDS"},"data":[0,0,0,0,0,0,0,0,0,0,0,0,0,0,0,0,0,0,0,0,0,0,0,0,0,0,0,0,0,0,0,0,0,0,0,0,0,0,0,0,0,0,0,0,0,0,0,0,0,0,0,0,0,0,0,0,0,0,0.5367,0.5368,0,0.5429,0.5429,0.543,0.544,0.544,0.5439,0.5438,0.5501,0.5503,0.5505,0,0,0,0,0,0,0,0,0,0,0,0,0,0.5256,0.5258,0.5367,0.5368,0.5368,0.5429,0.5429,0.543,0.544,0.5439,0.5439,0.5438,0.55,0.5503,0.5506,0,0,0,0,0,0,0,0,0,0,0,0,0,0.531,0.5259,0.5367,0.5381,0.5383,0.5428,0.5429,0.543,0.544,0.5439,0.5439,0.5438,0.55,0.5503,0.5506,0.5542,0,0,0.5516,0.5517,0,0,0,0,0,0,0,0,0.5307,0.5314,0.5378,0.538,0.5382,0.5426,0.5413,0.5468,0.544,0.5418,0.5438,0.5438,0.5477,0.5482,0.5495,0.5545,0.5548,0.5516,0.5518,0.5519,0.552,0,0,0,0,0,0,0,0.5303,0.5311,0.5391,0.5379,0.5381,0.5383,0.539,0.5424,0.5451,0.542,0.5421,0.5428,0.5478,0.5492,0.5497,0.5549,0.5516,0.5519,0.5521,0.5522,0.5629,0.563,0,0,0,0,0,0,0.5297,0.5308,0.5389,0.5393,0.5342,0.5386,0.5393,0.5413,0.5451,0.5456,0.5429,0.5429,0.5487,0.5493,0.5499,0.5543,0.5519,0.5522,0.5524,0.5629,0.563,0.5631,0,0,0,0,0,0,0.5294,0.5304,0.5387,0.5351,0.5362,0.5389,0.541,0.5414,0.5429,0.5457,0.5462,0.5439,0.5486,0.5494,0.5531,0.5545,0.5524,0.5527,0.5627,0.5629,0.563,0.5631,0,0,0,0,0,0,0.5291,0.5303,0.5318,0.5351,0.5363,0.5418,0.5411,0.5416,0.5434,0.5434,0.5468,0.5473,0.5486,0.5526,0.5534,0.5549,0.5529,0.5626,0.5628,0.563,0.563,0.5632,0.5634,0,0,0,0,0,0.5287,0.5316,0.5318,0.5328,0.5382,0.5419,0.5426,0.5442,0.5435,0.545,0.5468,0.5471,0.5542,0.553,0.5539,0.5555,0.5626,0.5628,0.563,0.5629,0.5632,0.5634,0,0,0,0,0,0,0.5283,0.532,0.5324,0.5364,0.5388,0.5421,0.544,0.5444,0.5471,0.547,0.5488,0.5495,0.5531,0.5547,0.5532,0.5591,0.5583,0.5587,0.558,0.5583,0.5585,0.558,0.5532,0,0,0,0,0,0.5287,0.5314,0.5345,0.5377,0.539,0.5412,0.5429,0.5439,0.5465,0.5475,0.5496,0.5521,0.5549,0.5567,0.5594,0.5632,0.5639,0.5648,0.565,0.5652,0.5655,0.5675,0.5679,0.5637,0.5637,0.5637,0,0,0.5295,0.5319,0.5335,0.5377,0.5397,0.5425,0.5421,0.545,0.5471,0.548,0.5515,0.5531,0.556,0.5597,0.5615,0.5612,0.5668,0.5654,0.5655,0.5658,0.5677,0.5681,0.5685,0.5639,0.5638,0.5638,0,0,0.5323,0.5345,0.5373,0.5393,0.5424,0.5438,0.5445,0.5477,0.5488,0.5524,0.5531,0.5555,0.5602,0.5622,0.5638,0.5673,0.5677,0.5681,0.5693,0.5712,0.5715,0.5718,0.573,0.5734,0.5684,0.5684,0.5684,0,0.533,0.5372,0.5387,0.5416,0.5434,0.5443,0.5472,0.549,0.5528,0.554,0.5536,0.5594,0.5615,0.5656,0.5664,0.5678,0.5685,0.5677,0.5714,0.5717,0.572,0.5731,0.5735,0.5685,0.5684,0.5684,0.5684,0,0.5377,0.5406,0.5425,0.5461,0.5481,0.551,0.5529,0.5547,0.5555,0.557,0.5606,0.563,0.5661,0.5672,0.568,0.5714,0.5711,0.571,0.5703,0.5724,0.5734,0.5739,0.5685,0.5685,0.5685,0.5685,0,0,0.5405,0.5449,0.5455,0.5471,0.5505,0.5527,0.5555,0.5586,0.5601,0.5626,0.565,0.5689,0.5688,0.5707,0.5717,0.5734,0.5758,0.5731,0.5731,0.5734,0.5796,0.5796,0.5801,0.5761,0.5762,0.5762,0.5793,0,0.5437,0.5488,0.5503,0.5546,0.5572,0.558,0.5605,0.5628,0.5642,0.5666,0.5682,0.5709,0.5706,0.5717,0.5734,0.5751,0.5771,0.5749,0.5782,0.5783,0.5774,0.5807,0.5807,0.5835,0.5798,0.5798,0.5799,0,0.5481,0.5507,0.5552,0.5581,0.5593,0.5615,0.5644,0.5666,0.5692,0.5701,0.5721,0.5729,0.5758,0.5749,0.5788,0.5774,0.5788,0.5798,0.58,0.5803,0.5792,0.581,0.5845,0.5849,0.5806,0.5805,0.5805,0,0.5496,0.5542,0.5575,0.5588,0.5623,0.5638,0.5653,0.5678,0.5695,0.572,0.5731,0.5759,0.5774,0.5796,0.5811,0.5803,0.5849,0.5841,0.5856,0.5856,0.5865,0.5865,0.5902,0.5875,0.5875,0.5875,0.5875,0,0.553,0.5557,0.5582,0.5602,0.5633,0.5649,0.5678,0.5693,0.5715,0.5738,0.5747,0.5768,0.5787,0.581,0.5822,0.5852,0.5859,0.5867,0.587,0.5866,0.5865,0.5875,0.5873,0.5876,0.5876,0.5876,0.5876,0,0.5551,0.5569,0.5606,0.5635,0.5643,0.5664,0.569,0.5709,0.5723,0.5752,0.5759,0.5782,0.581,0.5827,0.5862,0.587,0.5903,0.5906,0.5894,0.5896,0.591,0.5908,0.5955,0.5962,0.5931,0.5931,0.5931,0,0.5572,0.5593,0.5624,0.564,0.5656,0.5681,0.5699,0.5715,0.5732,0.5762,0.5778,0.5806,0.583,0.5873,0.5892,0.5919,0.5922,0.5936,0.5926,0.5921,0.5921,0.5919,0.5921,0.5938,0.5938,0.5938,0.5939,0,0.5605,0.5612,0.5637,0.5665,0.5685,0.5708,0.573,0.5743,0.5763,0.5782,0.581,0.5828,0.5864,0.5891,0.592,0.5935,0.594,0.5942,0.5946,0.5943,0.5935,0.5938,0.5899,0.5941,0.594,0.594,0.594,0.594,0.5626,0.5645,0.567,0.5697,0.5715,0.5736,0.5755,0.5771,0.5796,0.5826,0.5834,0.5863,0.5887,0.5925,0.5941,0.5963,0.5961,0.5968,0.597,0.5972,0.5971,0.5932,0.5969,0.5969,0.5969,0.5969,0.5969,0,0.5659,0.5675,0.57,0.5731,0.5752,0.5755,0.578,0.5797,0.5823,0.5844,0.5867,0.5899,0.5925,0.5946,0.5973,0.5987,0.599,0.5994,0.5993,0.5996,0.5972,0.5965,0.5991,0.5991,0.5991,0.5991,0.5991,0.5991,0.5679,0.571,0.572,0.5761,0.5777,0.5806,0.5819,0.5838,0.5855,0.589,0.5913,0.5926,0.5947,0.5975,0.5999,0.6005,0.6014,0.6017,0.6023,0.6,0.5998,0.5995,0.5989,0.6019,0.6019,0.6044,0.6045,0.6045]},{"header":{"parameterUnit":"m.s-1","parameterCategory":1,"la1":30.2991,"la2":30.254,"lo1":-89.0895,"lo2":-89.0444,"dy":0.0017,"dx":0.0017,"nx":28,"ny":28,"refTime":"2025-05-17T21:00:00:Z","depth":0,"parameterNumber":3,"parameterNumberName":"V-component_of_WINDS"},"data":[0,0,0,0,0,0,0,0,0,0,0,0,0,0,0,0,0,0,0,0,0,0,0,0,0,0,0,0,0,0,0,0,0,0,0,0,0,0,0,0,0,0,0,0,0,0,0,0,0,0,0,0,0,0,0,0,0,0,4.0844,4.0845,0,4.0936,4.0937,4.0938,4.0905,4.0903,4.0901,4.0899,4.0988,4.0992,4.0996,0,0,0,0,0,0,0,0,0,0,0,0,0,4.0634,4.0638,4.0844,4.0845,4.0846,4.0935,4.0937,4.0938,4.0906,4.0903,4.0901,4.0898,4.0986,4.0991,4.0996,0,0,0,0,0,0,0,0,0,0,0,0,0,4.0726,4.064,4.0843,4.0841,4.0841,4.0935,4.0937,4.0938,4.0906,4.0903,4.09,4.0897,4.0985,4.0991,4.0997,4.1097,0,0,4.1017,4.1019,0,0,0,0,0,0,0,0,4.072,4.0733,4.084,4.0841,4.0842,4.0906,4.0895,4.0991,4.0907,4.0881,4.0899,4.0896,4.0963,4.0971,4.0994,4.1101,4.1105,4.1017,4.1021,4.1024,4.1026,0,0,0,0,0,0,0,4.0714,4.0729,4.088,4.0841,4.0843,4.0833,4.0843,4.0913,4.0938,4.0883,4.0881,4.0893,4.0962,4.0988,4.0996,4.1107,4.1017,4.1023,4.1027,4.1029,4.13,4.1303,0,0,0,0,0,0,4.0708,4.0724,4.0877,4.0883,4.0773,4.0839,4.085,4.0888,4.0937,4.0941,4.0895,4.0891,4.0979,4.0989,4.0999,4.112,4.1024,4.103,4.1033,4.1297,4.1301,4.1305,0,0,0,0,0,0,4.0704,4.0722,4.0873,4.0803,4.0821,4.0846,4.0889,4.0892,4.0918,4.0946,4.095,4.0918,4.0977,4.099,4.1074,4.1123,4.1033,4.1038,4.1293,4.1298,4.1303,4.1362,0,0,0,0,0,0,4.0698,4.0721,4.076,4.0804,4.0825,4.0948,4.0892,4.0896,4.0929,4.0925,4.0968,4.0972,4.0976,4.1064,4.108,4.113,4.1043,4.1289,4.1295,4.1301,4.1356,4.1369,4.138,0,0,0,0,0,4.0691,4.0772,4.0763,4.0781,4.0876,4.0951,4.0963,4.0967,4.0933,4.0973,4.0991,4.0971,4.1115,4.1073,4.109,4.1143,4.1285,4.1293,4.1301,4.1351,4.1366,4.1379,0,0,0,0,0,0,4.0732,4.0778,4.0768,4.0866,4.0905,4.0945,4.0995,4.0983,4.103,4.1024,4.1025,4.1035,4.1121,4.114,4.1093,4.1242,4.1195,4.1206,4.1227,4.1242,4.1254,4.1247,4.1049,0,0,0,0,0,4.0753,4.0812,4.0848,4.0931,4.0952,4.097,4.1003,4.1003,4.1042,4.1058,4.1082,4.112,4.1173,4.1208,4.1259,4.1358,4.1367,4.1403,4.1415,4.1424,4.1434,4.1488,4.1504,4.133,4.133,4.1329,0,0,4.0796,4.0828,4.0865,4.0941,4.0971,4.103,4.0984,4.1049,4.1093,4.1067,4.1148,4.1167,4.1209,4.1301,4.1342,4.1319,4.1484,4.1434,4.1441,4.1446,4.1498,4.1514,4.1529,4.1335,4.1334,4.1333,0,0,4.0905,4.0936,4.1009,4.1041,4.1087,4.1099,4.1117,4.1159,4.1171,4.1253,4.1235,4.1286,4.1378,4.1409,4.1437,4.1558,4.1541,4.1574,4.1636,4.1688,4.1702,4.1714,4.1758,4.1773,4.1584,4.1584,4.1584,0,4.0952,4.1044,4.1048,4.1115,4.1148,4.1129,4.1203,4.1232,4.1292,4.1315,4.1289,4.1405,4.1431,4.153,4.156,4.1583,4.1602,4.1569,4.17,4.1712,4.1724,4.1765,4.1781,4.1587,4.1587,4.1587,4.1586,0,4.1099,4.1162,4.1216,4.1277,4.1316,4.1385,4.1399,4.1437,4.1433,4.1448,4.153,4.1562,4.1619,4.1642,4.1638,4.1741,4.1725,4.1699,4.1652,4.1744,4.1783,4.1799,4.1593,4.1592,4.159,4.1589,0,0,4.1237,4.1301,4.132,4.1348,4.1398,4.1446,4.1514,4.1572,4.1605,4.1647,4.1703,4.1782,4.1759,4.179,4.179,4.1836,4.193,4.1804,4.1805,4.1827,4.2045,4.2064,4.2083,4.1919,4.1922,4.1924,4.2041,0,4.1351,4.1474,4.148,4.159,4.1648,4.1631,4.169,4.1727,4.1741,4.1791,4.1806,4.1863,4.1828,4.1847,4.1891,4.1909,4.1974,4.19,4.197,4.1973,4.1962,4.2103,4.2124,4.2233,4.2057,4.2059,4.2061,0,4.1501,4.155,4.1667,4.171,4.1734,4.1788,4.1841,4.1889,4.1929,4.1937,4.1972,4.1965,4.2033,4.1983,4.2076,4.2026,4.2055,4.2068,4.2072,4.2079,4.2023,4.2114,4.2268,4.2285,4.2085,4.2083,4.2081,0,4.1591,4.1685,4.1768,4.1792,4.1843,4.1881,4.1904,4.1941,4.1976,4.2022,4.2044,4.2096,4.2125,4.2165,4.2171,4.2134,4.2265,4.2215,4.2272,4.2272,4.2301,4.2299,4.2462,4.2319,4.2318,4.2318,4.2318,0,4.1718,4.179,4.1809,4.186,4.194,4.1945,4.2024,4.2043,4.2077,4.213,4.2117,4.2166,4.2172,4.2222,4.2227,4.2304,4.2316,4.2324,4.2324,4.2325,4.2325,4.2345,4.2337,4.2322,4.2321,4.2321,4.232,0,4.1832,4.1848,4.1937,4.1979,4.1991,4.2048,4.2083,4.2131,4.2144,4.2211,4.2227,4.2248,4.2307,4.2317,4.2386,4.2389,4.2481,4.2473,4.2468,4.2467,4.2524,4.2519,4.2706,4.2731,4.257,4.2572,4.2573,0,4.1913,4.1969,4.2017,4.2053,4.2078,4.2135,4.2171,4.2177,4.2214,4.2264,4.2306,4.2364,4.2411,4.2506,4.2525,4.2578,4.2572,4.2634,4.2579,4.2579,4.2573,4.257,4.2576,4.2644,4.2646,4.2647,4.2649,0,4.2054,4.2059,4.2112,4.2169,4.2212,4.2256,4.2297,4.2326,4.2338,4.238,4.2441,4.2478,4.2549,4.2607,4.2659,4.268,4.2666,4.2665,4.2682,4.2684,4.2679,4.2683,4.2497,4.2661,4.266,4.2659,4.2658,4.2658,4.2155,4.2203,4.2246,4.2305,4.2337,4.2376,4.2423,4.2443,4.2495,4.2555,4.2555,4.2622,4.266,4.2729,4.2754,4.2805,4.2785,4.2808,4.2814,4.282,4.2826,4.267,4.2815,4.2814,4.2814,4.2814,4.2813,0,4.2296,4.2322,4.2377,4.2436,4.2483,4.2467,4.2512,4.2551,4.2612,4.2649,4.2696,4.2766,4.2822,4.2847,4.2901,4.2938,4.2933,4.2952,4.2949,4.2955,4.2841,4.2822,4.2955,4.2955,4.2955,4.2955,4.2955,4.2955,4.2375,4.2457,4.2467,4.2565,4.259,4.2657,4.2684,4.272,4.275,4.283,4.2877,4.2893,4.2925,4.2982,4.3032,4.3038,4.3058,4.3081,4.3084,4.2977,4.2962,4.2949,4.2931,4.3085,4.3085,4.3193,4.3194,4.3195]}]]